Overview Statistics Trail Chart Weather Telemetry Raw packets
 

This is the latest recevied weather packets stored in our database for station/object K7DC. If no packets are shown the sender has not sent any weather packets the latest 10 day(s).

<< 105 106 107 108 109 110 111 >>
Time Temp. Humidity Pressure Rain* Wind** Luminosity Snow
1787843633 32.22° C 46% 1017.4 hPa 0 mm - 76 W/m² -
1787843329 32.22° C 47% 1017.6 hPa 0 mm - 325 W/m² -
1787843024 32.22° C 47% 1017.3 hPa 0 mm - 307 W/m² -
1787842724 32.22° C 46% 1017.3 hPa 0 mm - 286 W/m² -
1787842419 31.67° C 47% 1017.1 hPa 0 mm - 267 W/m² -
1787842119 31.11° C 47% 1017.2 hPa 0 mm - 66 W/m² -
1787841817 31.11° C 46% 1017.4 hPa 0 mm - 229 W/m² -
1787841510 31.11° C 45% 1017.2 hPa 0 mm - 62 W/m² -
1787841209 30.56° C 45% 1017.6 hPa 0 mm - 194 W/m² -
1787840904 30.56° C 45% 1017.2 hPa 0 mm - 58 W/m² -
1787840599 30.56° C 44% 1017.4 hPa 0 mm - 159 W/m² -
1787840295 30.56° C 45% 1017.4 hPa 0 mm - 142 W/m² -
1787839995 30.56° C 44% 1017.4 hPa 0 mm - 124 W/m² -
1787839694 30.56° C 44% 1017.3 hPa 0 mm - 111 W/m² -
1787839389 30° C 45% 1017.2 hPa 0 mm - 96 W/m² -
1787839089 30° C 45% 1017 hPa 0 mm - 86 W/m² -
1787838788 30° C 45% 1016.9 hPa 0 mm - 74 W/m² -
1787838483 29.44° C 45% 1017 hPa 0 mm - 63 W/m² -
1787838183 29.44° C 45% 1016.8 hPa 0 mm - 53 W/m² -
1787837882 29.44° C 45% 1016.9 hPa 0 mm - 45 W/m² -
1787837581 28.89° C 45% 1016.9 hPa 0 mm - 37 W/m² -
1787837281 28.89° C 44% 1016.8 hPa 0 mm - 29 W/m² -
1787836976 28.89° C 43% 1016.8 hPa 0 mm - 23 W/m² -
1787836671 28.89° C 43% 1016.1 hPa 0 mm - 20 W/m² -
1787836371 28.33° C 43% 1016.1 hPa 0 mm - 16 W/m² -

* Rain latest hour (hover to see other rain measurements)
** Current wind speed in m/s (hover to see current wind gust speed)